Tracking 28081 objects as of 26-Sep-2023
HD Live streaming from Space Station
objects crossing your sky now

STARLINK-2285

Track STARLINK-2285 now!
10-day predictions
STARLINK-2285 is classified as:


NORAD ID: 48019
Int'l Code: 2021-024AU
Perigee: 553.3 km
Apogee: 555.5 km
Inclination: 53.1 °
Period: 95.6 minutes
Semi major axis: 6925 km
RCS: Unknown
Launch date: March 24, 2021
Source: United States (US)
Launch site: AIR FORCE EASTERN TEST RANGE (AFETR)
Your satellite tracking list
Your tracking list is empty




NASA's NSSDC Master Catalog

Two Line Element Set (TLE):
1 48019U 21024AU  23268.56972266  .00026355  00000-0  17822-2 0  9998
2 48019  53.0559  14.4595 0001597  94.9289 265.1882 15.06387924139327
Source of the keplerian elements: AFSPC